Sitka, AK

12:07 AM AKDT on May 26, 2017 (GMT -0800)
Sitka Rocky Gutierrez

Weather History for PASI - July, 2013

Change the Weather History Date:

Thursday, July 25, 2013

  Actual Average Record
Temperature  
Mean Temperature 60 °F -  
Max Temperature 64 °F 61 °F 72 °F (1977)
Min Temperature 55 °F 51 °F 42 °F (1990)
Degree Days  
Heating Degree Days 6    
Growing Degree Days 10 (Base 50)    
Moisture  
Dew Point 54 °F    
Average Humidity 87    
Maximum Humidity 96    
Minimum Humidity 72    
Precipitation  
Precipitation 0.40 in - - ()
Sea Level Pressure  
Sea Level Pressure 30.14 in    
Wind  
Wind Speed 4 mph (SSW)    
Max Wind Speed 13 mph    
Max Gust Speed -    
Visibility 7 miles    
Events Rain    
Averages and records for this station are not official NWS values.
T = Trace of Precipitation, MM = Missing Value Source: NWS Daily Summary

Daily Weather History Graph

Daily Weather History Graph

Search for Another Location

Airport or City:

Trip Planner

Search our weather history database for the weather conditions in past years. The results will help you decide how hot, cold, wet, or windy it might be!

Date:

Astronomy

Jul. 25, 2013 Rise Set
Actual Time 4:47 AM AKDT 9:27 PM AKDT
Civil Twilight 3:52 AM AKDT 10:21 PM AKDT
Nautical Twilight 2:17 AM AKDT 11:53 PM AKDT
Astronomical Twilight Sun does not set Sun does not set
Moon 10:06 PM AKDT (7/25) 9:24 AM AKDT (7/25)
Length of Visible Light 18h 28m
Length of Day
16h 40m
Waning Gibbous, 87% of the Moon is Illuminated
Jul 25
Waning Gibbous
Jul 29
Last Quarter
Aug 6
New
Aug 14
First Quarter
Aug 20
Full

Hourly Weather History & Observations

Time (AKDT) Temp. Dew Point Humidity Pressure Visibility Wind Dir Wind Speed Gust Speed Precip Events Conditions
12:30 AM 57.9 °F 55.0 °F 90% 30.09 in 10.0 mi South 3.5 mph - 0.01 in   Overcast
12:45 AM 57.9 °F 55.0 °F 90% 30.09 in 10.0 mi Calm Calm - 0.01 in   Overcast
12:53 AM 57.9 °F 55.9 °F 93% 30.09 in 10.0 mi South 4.6 mph - 0.01 in   Overcast
1:19 AM 57.9 °F 55.0 °F 90% 30.09 in 4.0 mi ESE 3.5 mph - 0.03 in Rain Rain
1:27 AM 57.9 °F 55.9 °F 93% 30.09 in 7.0 mi East 4.6 mph - 0.04 in Rain Light Rain
1:53 AM 57.0 °F 55.9 °F 96% 30.10 in 10.0 mi ENE 3.5 mph - 0.05 in   Overcast
2:53 AM 57.9 °F 55.9 °F 93% 30.10 in 10.0 mi Calm Calm - N/A   Overcast
3:53 AM 55.9 °F 54.0 °F 93% 30.10 in 2.5 mi South 10.4 mph - 0.07 in Rain Rain
3:58 AM 55.9 °F 54.0 °F 93% 30.10 in 3.0 mi SSW 12.7 mph - 0.01 in Rain Rain
4:13 AM 55.9 °F 54.0 °F 93% 30.10 in 2.5 mi SSW 11.5 mph - 0.03 in Rain Rain
4:23 AM 55.9 °F 54.0 °F 93% 30.10 in 4.0 mi SSW 10.4 mph - 0.04 in Rain Light Rain
4:46 AM 55.9 °F 54.0 °F 93% 30.11 in 7.0 mi SSW 8.1 mph - 0.05 in Rain Light Rain
4:53 AM 55.9 °F 54.0 °F 93% 30.11 in 5.0 mi SSW 6.9 mph - 0.05 in Rain Rain
5:11 AM 55.9 °F 54.0 °F 93% 30.11 in 2.5 mi South 4.6 mph - 0.05 in Rain Rain
5:15 AM 55.9 °F 54.0 °F 93% 30.11 in 1.8 mi Calm Calm - 0.08 in Rain Heavy Rain
5:18 AM 55.9 °F 54.0 °F 93% 30.11 in 2.0 mi Calm Calm - 0.08 in Rain Rain
5:29 AM 55.9 °F 54.0 °F 93% 30.11 in 3.0 mi Calm Calm - 0.10 in Rain Light Rain
5:38 AM 55.9 °F 54.0 °F 93% 30.11 in 1.8 mi SSW 4.6 mph - 0.13 in Rain Rain
5:50 AM 55.4 °F 53.6 °F 94% 30.11 in 1.8 mi SW 4.6 mph - 0.15 in Rain Light Rain
5:53 AM 55.9 °F 54.0 °F 93% 30.11 in 2.5 mi Calm Calm - 0.16 in Rain Rain
6:03 AM 55.9 °F 54.0 °F 93% 30.11 in 4.0 mi Calm Calm - 0.01 in Rain Light Rain
6:11 AM 55.9 °F 54.0 °F 93% 30.11 in 6.0 mi South 3.5 mph - 0.01 in Rain Light Rain
6:53 AM 55.9 °F 53.1 °F 90% 30.12 in 5.0 mi NE 3.5 mph - 0.03 in Rain Light Rain
7:34 AM 55.9 °F 53.1 °F 90% 30.12 in 3.0 mi NE 5.8 mph - 0.03 in Rain Light Rain
7:53 AM 55.9 °F 53.1 °F 90% 30.13 in 6.0 mi NE 4.6 mph - 0.03 in Rain Light Rain
8:24 AM 57.0 °F 54.0 °F 89% 30.13 in 6.0 mi NE 4.6 mph - 0.00 in Rain Light Rain
8:53 AM 57.9 °F 54.0 °F 87% 30.14 in 7.0 mi Calm Calm - 0.00 in   Overcast
9:53 AM 59.0 °F 54.0 °F 83% 30.14 in 10.0 mi Calm Calm - N/A   Overcast
10:24 AM 59.0 °F 54.0 °F 83% 30.14 in 10.0 mi Calm Calm - N/A   Overcast
10:53 AM 59.0 °F 53.1 °F 81% 30.15 in 10.0 mi Calm Calm - N/A   Overcast
11:51 AM 60.8 °F 55.4 °F 82% 30.15 in 10.0 mi SW 5.8 mph - N/A   Mostly Cloudy
11:53 AM 62.1 °F 55.9 °F 80% 30.16 in 10.0 mi SW 6.9 mph - N/A   Mostly Cloudy
12:53 PM 64.0 °F 55.9 °F 75% 30.16 in 10.0 mi SW 6.9 mph - N/A   Mostly Cloudy
1:53 PM 64.0 °F 55.0 °F 73% 30.17 in 10.0 mi SW 9.2 mph - N/A   Scattered Clouds
2:53 PM 62.1 °F 55.0 °F 78% 30.17 in 10.0 mi West 6.9 mph - N/A   Scattered Clouds
3:53 PM 62.1 °F 55.0 °F 78% 30.18 in 10.0 mi West 9.2 mph - N/A   Clear
4:53 PM 62.1 °F 54.0 °F 75% 30.19 in 10.0 mi West 6.9 mph - N/A   Clear
5:53 PM 62.1 °F 54.0 °F 75% 30.19 in 10.0 mi NW 8.1 mph - N/A   Scattered Clouds
6:53 PM 61.0 °F 52.0 °F 72% 30.19 in 10.0 mi West 5.8 mph - N/A   Scattered Clouds
7:53 PM 62.1 °F 54.0 °F 75% 30.19 in 10.0 mi West 4.6 mph - N/A   Scattered Clouds
8:53 PM 61.0 °F 54.0 °F 78% 30.19 in 10.0 mi West 4.6 mph - N/A   Scattered Clouds
9:53 PM 57.9 °F 53.1 °F 84% 30.19 in 10.0 mi Calm Calm - N/A   Mostly Cloudy
10:31 PM 57.9 °F 53.1 °F 84% 30.19 in 10.0 mi NNE 3.5 mph - N/A   Overcast
10:48 PM 57.2 °F 53.6 °F 88% 30.20 in 10.0 mi Calm Calm - N/A   Overcast
10:53 PM 57.9 °F 53.1 °F 84% 30.20 in 10.0 mi Calm Calm - N/A   Overcast
11:53 PM 57.9 °F 54.0 °F 87% 30.20 in 10.0 mi ESE 4.6 mph - N/A   Overcast